Time,TemperatureF,DewpointF,PressureIn,WindDirection,WindDirectionDegrees,WindSpeedMPH,WindSpeedGustMPH,Humidity,HourlyPrecipIn,Conditions,Clouds,dailyrainin,SoftwareType,DateUTC
2013-06-19 00:05:00,60.6,60.0,29.82,NE,49,6.0,8.0,98,0.01,,,0.00,weatherlink.com 1.10,2013-06-19 04:05:00,
2013-06-19 00:20:00,60.4,60.0,29.82,NE,52,4.0,9.0,98,0.01,,,0.00,weatherlink.com 1.10,2013-06-19 04:20:00,
2013-06-19 00:35:00,60.5,60.0,29.82,North,9,6.0,7.0,98,0.01,,,0.00,weatherlink.com 1.10,2013-06-19 04:35:00,
2013-06-19 00:50:00,60.6,60.0,29.82,ENE,60,6.0,8.0,98,0.02,,,0.02,weatherlink.com 1.10,2013-06-19 04:50:00,
2013-06-19 01:05:00,60.6,60.0,29.82,ENE,60,5.0,8.0,98,0.03,,,0.03,weatherlink.com 1.10,2013-06-19 05:05:00,
2013-06-19 01:20:00,60.5,60.0,29.82,ENE,58,6.0,9.0,98,0.04,,,0.04,weatherlink.com 1.10,2013-06-19 05:20:00,
2013-06-19 01:35:00,60.1,60.0,29.81,NE,54,7.0,10.0,98,0.05,,,0.05,weatherlink.com 1.10,2013-06-19 05:35:00,
2013-06-19 01:50:00,60.0,60.0,29.81,ENE,64,8.0,12.0,98,0.04,,,0.06,weatherlink.com 1.10,2013-06-19 05:50:00,
2013-06-19 02:05:00,59.8,59.0,29.82,NE,44,11.0,14.0,98,0.03,,,0.06,weatherlink.com 1.10,2013-06-19 06:05:00,
2013-06-19 02:20:00,59.6,59.0,29.81,NE,50,6.0,11.0,98,0.02,,,0.06,weatherlink.com 1.10,2013-06-19 06:20:00,
2013-06-19 02:35:00,59.3,59.0,29.81,NE,53,9.0,14.0,98,0.01,,,0.06,weatherlink.com 1.10,2013-06-19 06:35:00,
2013-06-19 02:50:00,59.3,59.0,29.81,ENE,61,11.0,15.0,98,0.00,,,0.06,weatherlink.com 1.10,2013-06-19 06:50:00,
2013-06-19 03:05:00,59.2,59.0,29.81,NE,56,9.0,16.0,98,0.00,,,0.06,weatherlink.com 1.10,2013-06-19 07:05:00,
2013-06-19 03:20:00,59.0,58.0,29.82,ENE,59,7.0,16.0,97,0.00,,,0.06,weatherlink.com 1.10,2013-06-19 07:20:00,
2013-06-19 03:35:00,59.0,58.0,29.82,NE,36,12.0,14.0,97,0.00,,,0.06,weatherlink.com 1.10,2013-06-19 07:35:00,
2013-06-19 03:50:00,58.9,58.0,29.82,NNE,25,13.0,18.0,96,0.00,,,0.06,weatherlink.com 1.10,2013-06-19 07:50:00,
2013-06-19 04:05:00,58.8,57.0,29.82,ENE,64,8.0,17.0,95,0.00,,,0.06,weatherlink.com 1.10,2013-06-19 08:05:00,
2013-06-19 04:20:00,58.7,57.0,29.82,NE,56,13.0,17.0,94,0.00,,,0.06,weatherlink.com 1.10,2013-06-19 08:20:00,
2013-06-19 04:35:00,59.0,57.0,29.82,NE,41,8.0,22.0,92,0.00,,,0.06,weatherlink.com 1.10,2013-06-19 08:35:00,
2013-06-19 04:50:00,59.0,56.0,29.83,NNE,27,11.0,17.0,91,0.00,,,0.06,weatherlink.com 1.10,2013-06-19 08:50:00,
2013-06-19 05:05:00,59.1,56.0,29.82,NE,43,11.0,17.0,90,0.00,,,0.06,weatherlink.com 1.10,2013-06-19 09:05:00,
2013-06-19 05:20:00,59.3,56.0,29.83,NNE,30,11.0,19.0,90,0.00,,,0.06,weatherlink.com 1.10,2013-06-19 09:20:00,
2013-06-19 05:35:00,59.4,56.0,29.83,NE,51,10.0,16.0,89,0.00,,,0.06,weatherlink.com 1.10,2013-06-19 09:35:00,
2013-06-19 05:50:00,59.3,56.0,29.83,NE,44,12.0,18.0,89,0.00,,,0.06,weatherlink.com 1.10,2013-06-19 09:50:00,
2013-06-19 06:05:00,59.4,57.0,29.84,NNE,33,8.0,15.0,90,0.00,,,0.06,weatherlink.com 1.10,2013-06-19 10:05:00,
2013-06-19 06:20:00,59.4,57.0,29.84,NE,49,10.0,15.0,90,0.00,,,0.06,weatherlink.com 1.10,2013-06-19 10:20:00,
2013-06-19 06:35:00,59.6,57.0,29.85,NE,41,7.0,17.0,90,0.00,,,0.06,weatherlink.com 1.10,2013-06-19 10:35:00,
2013-06-19 06:50:00,59.6,56.0,29.85,NE,49,12.0,14.0,89,0.00,,,0.06,weatherlink.com 1.10,2013-06-19 10:50:00,
2013-06-19 07:06:00,59.9,56.0,29.86,NE,56,13.0,19.0,87,0.00,,,0.06,weatherlink.com 1.10,2013-06-19 11:06:00,
2013-06-19 07:21:00,60.4,56.0,29.86,NE,56,11.0,15.0,85,0.00,,,0.06,weatherlink.com 1.10,2013-06-19 11:21:00,
2013-06-19 07:36:00,60.3,56.0,29.87,ENE,63,12.0,17.0,85,0.00,,,0.06,weatherlink.com 1.10,2013-06-19 11:36:00,
2013-06-19 07:51:00,60.4,56.0,29.88,NE,37,10.0,19.0,84,0.00,,,0.06,weatherlink.com 1.10,2013-06-19 11:51:00,
2013-06-19 08:06:00,61.3,55.0,29.89,NE,53,12.0,19.0,81,0.00,,,0.06,weatherlink.com 1.10,2013-06-19 12:06:00,
2013-06-19 08:21:00,62.2,55.0,29.90,NE,37,11.0,20.0,78,0.00,,,0.06,weatherlink.com 1.10,2013-06-19 12:21:00,
2013-06-19 08:36:00,62.2,55.0,29.89,NE,36,14.0,22.0,77,0.00,,,0.06,weatherlink.com 1.10,2013-06-19 12:36:00,
2013-06-19 08:51:00,62.3,55.0,29.90,NE,41,8.0,18.0,76,0.00,,,0.06,weatherlink.com 1.10,2013-06-19 12:51:00,
2013-06-19 09:06:00,62.9,55.0,29.90,NE,49,12.0,15.0,75,0.00,,,0.06,weatherlink.com 1.10,2013-06-19 13:06:00,
2013-06-19 09:21:00,62.8,55.0,29.91,NE,36,11.0,20.0,75,0.00,,,0.06,weatherlink.com 1.10,2013-06-19 13:21:00,
2013-06-19 09:36:00,63.2,54.0,29.91,NE,41,9.0,17.0,72,0.00,,,0.06,weatherlink.com 1.10,2013-06-19 13:36:00,
2013-06-19 09:51:00,63.3,54.0,29.92,NE,49,10.0,18.0,72,0.00,,,0.06,weatherlink.com 1.10,2013-06-19 13:51:00,
2013-06-19 10:06:00,63.5,54.0,29.93,NE,49,13.0,17.0,71,0.00,,,0.06,weatherlink.com 1.10,2013-06-19 14:06:00,
2013-06-19 10:21:00,63.4,53.0,29.93,NNE,29,8.0,18.0,70,0.00,,,0.06,weatherlink.com 1.10,2013-06-19 14:21:00,
2013-06-19 10:36:00,64.1,54.0,29.94,NE,47,9.0,17.0,69,0.00,,,0.06,weatherlink.com 1.10,2013-06-19 14:36:00,
2013-06-19 10:51:00,64.8,54.0,29.94,NE,54,13.0,22.0,67,0.00,,,0.06,weatherlink.com 1.10,2013-06-19 14:51:00,
2013-06-19 11:06:00,65.0,54.0,29.95,NE,56,9.0,18.0,67,0.00,,,0.06,weatherlink.com 1.10,2013-06-19 15:06:00,
2013-06-19 11:21:00,64.8,53.0,29.95,NE,53,9.0,15.0,66,0.00,,,0.06,weatherlink.com 1.10,2013-06-19 15:21:00,
2013-06-19 11:36:00,65.4,53.0,29.95,NE,51,9.0,18.0,65,0.00,,,0.06,weatherlink.com 1.10,2013-06-19 15:36:00,
2013-06-19 11:51:00,65.4,53.0,29.95,NE,43,11.0,17.0,64,0.00,,,0.06,weatherlink.com 1.10,2013-06-19 15:51:00,
2013-06-19 12:06:00,65.5,54.0,29.95,ENE,63,11.0,18.0,66,0.00,,,0.06,weatherlink.com 1.10,2013-06-19 16:06:00,
2013-06-19 12:21:00,65.2,53.0,29.95,ENE,58,12.0,17.0,66,0.00,,,0.06,weatherlink.com 1.10,2013-06-19 16:21:00,
2013-06-19 12:36:00,65.6,54.0,29.96,NE,46,8.0,16.0,66,0.00,,,0.06,weatherlink.com 1.10,2013-06-19 16:36:00,
2013-06-19 12:51:00,65.8,54.0,29.96,NE,40,11.0,15.0,65,0.00,,,0.06,weatherlink.com 1.10,2013-06-19 16:51:00,
2013-06-19 13:06:00,65.9,53.0,29.96,NE,50,10.0,16.0,63,0.00,,,0.06,weatherlink.com 1.10,2013-06-19 17:06:00,
2013-06-19 13:21:00,66.3,54.0,29.96,NNE,27,9.0,17.0,65,0.00,,,0.06,weatherlink.com 1.10,2013-06-19 17:21:00,
2013-06-19 13:36:00,66.7,54.0,29.96,NNE,15,6.0,13.0,64,0.00,,,0.06,weatherlink.com 1.10,2013-06-19 17:36:00,
2013-06-19 13:51:00,66.7,56.0,29.97,NNE,19,9.0,14.0,68,0.00,,,0.06,weatherlink.com 1.10,2013-06-19 17:51:00,
2013-06-19 14:06:00,67.1,57.0,29.97,NE,49,9.0,13.0,70,0.00,,,0.06,weatherlink.com 1.10,2013-06-19 18:06:00,
2013-06-19 14:22:00,66.8,57.0,29.98,NE,52,14.0,14.0,72,0.00,,,0.06,weatherlink.com 1.10,2013-06-19 18:22:00,
2013-06-19 14:37:00,65.8,58.0,29.98,NE,51,14.0,15.0,76,0.00,,,0.06,weatherlink.com 1.10,2013-06-19 18:37:00,
2013-06-19 14:52:00,65.5,59.0,29.98,NE,53,9.0,15.0,80,0.00,,,0.06,weatherlink.com 1.10,2013-06-19 18:52:00,
2013-06-19 15:07:00,66.3,58.0,29.99,NE,53,11.0,15.0,75,0.00,,,0.06,weatherlink.com 1.10,2013-06-19 19:07:00,
2013-06-19 15:22:00,66.0,56.0,29.99,NE,54,6.0,16.0,71,0.00,,,0.06,weatherlink.com 1.10,2013-06-19 19:22:00,
2013-06-19 15:37:00,66.5,54.0,30.00,NE,36,12.0,15.0,65,0.00,,,0.06,weatherlink.com 1.10,2013-06-19 19:37:00,
2013-06-19 15:52:00,67.0,55.0,30.00,NE,53,11.0,16.0,65,0.00,,,0.06,weatherlink.com 1.10,2013-06-19 19:52:00,
2013-06-19 16:07:00,66.8,54.0,30.01,NE,56,9.0,14.0,64,0.00,,,0.06,weatherlink.com 1.10,2013-06-19 20:07:00,
2013-06-19 16:22:00,66.6,53.0,30.01,NE,52,8.0,15.0,62,0.00,,,0.06,weatherlink.com 1.10,2013-06-19 20:22:00,
2013-06-19 16:37:00,67.1,53.0,30.01,NE,47,11.0,12.0,60,0.00,,,0.06,weatherlink.com 1.10,2013-06-19 20:37:00,
2013-06-19 16:52:00,66.8,53.0,30.01,NE,54,12.0,14.0,62,0.00,,,0.06,weatherlink.com 1.10,2013-06-19 20:52:00,
2013-06-19 17:07:00,66.4,51.0,30.01,NE,56,10.0,13.0,58,0.00,,,0.06,weatherlink.com 1.10,2013-06-19 21:07:00,
2013-06-19 17:22:00,66.7,51.0,30.01,NE,54,5.0,9.0,58,0.00,,,0.06,weatherlink.com 1.10,2013-06-19 21:22:00,
2013-06-19 17:37:00,66.8,51.0,30.02,NE,41,11.0,11.0,58,0.00,,,0.06,weatherlink.com 1.10,2013-06-19 21:37:00,
2013-06-19 17:52:00,66.1,52.0,30.02,NE,56,9.0,10.0,60,0.00,,,0.06,weatherlink.com 1.10,2013-06-19 21:52:00,
2013-06-19 18:07:00,65.9,52.0,30.02,North,11,5.0,11.0,62,0.00,,,0.06,weatherlink.com 1.10,2013-06-19 22:07:00,
2013-06-19 18:22:00,65.7,52.0,30.03,NE,56,5.0,9.0,61,0.00,,,0.06,weatherlink.com 1.10,2013-06-19 22:22:00,
2013-06-19 18:37:00,65.4,51.0,30.03,NE,40,2.0,6.0,61,0.00,,,0.06,weatherlink.com 1.10,2013-06-19 22:37:00,
2013-06-19 18:52:00,65.4,53.0,30.03,NE,49,3.0,6.0,64,0.00,,,0.06,weatherlink.com 1.10,2013-06-19 22:52:00,
2013-06-19 19:07:00,65.0,53.0,30.04,NE,55,4.0,6.0,66,0.00,,,0.06,weatherlink.com 1.10,2013-06-19 23:07:00,
2013-06-19 19:22:00,64.4,53.0,30.04,NNE,33,3.0,6.0,66,0.00,,,0.06,weatherlink.com 1.10,2013-06-19 23:22:00,
2013-06-19 19:37:00,63.8,52.0,30.04,ENE,65,3.0,5.0,66,0.00,,,0.06,weatherlink.com 1.10,2013-06-19 23:37:00,
2013-06-19 19:52:00,62.8,53.0,30.05,East,94,2.0,6.0,70,0.00,,,0.06,weatherlink.com 1.10,2013-06-19 23:52:00,
2013-06-19 20:07:00,61.6,51.0,30.05,East,96,1.0,2.0,69,0.00,,,0.06,weatherlink.com 1.10,2013-06-20 00:07:00,
2013-06-19 20:22:00,60.6,52.0,30.05,ENE,72,0.0,1.0,74,0.00,,,0.06,weatherlink.com 1.10,2013-06-20 00:22:00,
2013-06-19 20:37:00,58.8,52.0,30.06,WNW,298,1.0,1.0,78,0.00,,,0.06,weatherlink.com 1.10,2013-06-20 00:37:00,
2013-06-19 20:52:00,57.7,52.0,30.06,WNW,288,0.0,1.0,82,0.00,,,0.06,weatherlink.com 1.10,2013-06-20 00:52:00,
2013-06-19 21:07:00,57.6,53.0,30.07,WNW,288,0.0,0.0,85,0.00,,,0.06,weatherlink.com 1.10,2013-06-20 01:07:00,
2013-06-19 21:37:00,56.9,53.0,30.08,WNW,288,0.0,0.0,87,0.00,,,0.06,weatherlink.com 1.10,2013-06-20 01:37:00,
2013-06-19 21:52:00,56.4,53.0,30.09,WNW,288,0.0,1.0,87,0.00,,,0.06,weatherlink.com 1.10,2013-06-20 01:52:00,
2013-06-19 22:07:00,55.9,52.0,30.10,SW,229,1.0,3.0,86,0.00,,,0.06,weatherlink.com 1.10,2013-06-20 02:07:00,
2013-06-19 22:23:00,58.2,53.0,30.11,West,263,1.0,4.0,83,0.00,,,0.06,weatherlink.com 1.10,2013-06-20 02:23:00,
2013-06-19 22:38:00,57.4,53.0,30.11,WSW,244,0.0,1.0,84,0.00,,,0.06,weatherlink.com 1.10,2013-06-20 02:38:00,
2013-06-19 22:53:00,56.5,52.0,30.12,WSW,257,0.0,0.0,86,0.00,,,0.06,weatherlink.com 1.10,2013-06-20 02:53:00,
2013-06-19 23:08:00,55.7,52.0,30.12,West,280,1.0,2.0,87,0.00,,,0.06,weatherlink.com 1.10,2013-06-20 03:08:00,
2013-06-19 23:23:00,55.1,52.0,30.12,WNW,285,1.0,1.0,89,0.00,,,0.06,weatherlink.com 1.10,2013-06-20 03:23:00,
2013-06-19 23:38:00,55.1,52.0,30.12,WNW,285,0.0,1.0,90,0.00,,,0.06,weatherlink.com 1.10,2013-06-20 03:38:00,